This is the latest recevied weather packets stored in our database for station/object N0HEQ. If no packets are shown the sender has not sent any weather packets the latest 10 day(s).
| Time | Temp. | Humidity | Pressure | Rain* | Wind** | Luminosity | Snow |
|---|---|---|---|---|---|---|---|
| 1778083976 | 0° C | 98% | 1022.2 hPa | 0 mm | - | 15 W/m² | - |
| 1778083674 | 0° C | 98% | 1022.2 hPa | 0 mm | - | 11 W/m² | - |
| 1778083370 | 0° C | 98% | 1021.9 hPa | 0 mm | - | 12 W/m² | - |
| 1778083069 | 0° C | 98% | 1022 hPa | 0 mm | - | 12 W/m² | - |
| 1778082766 | 0° C | 98% | 1021.9 hPa | 0 mm | - | 13 W/m² | - |
| 1778081633 | 0° C | 98% | 1022.2 hPa | 0 mm | - | 10 W/m² | - |
| 1778081329 | -0.56° C | 98% | 1022.1 hPa | 0 mm | - | 11 W/m² | - |
| 1778081026 | -0.56° C | 98% | 1021.9 hPa | 0 mm | - | 10 W/m² | - |
| 1778080725 | 0° C | 98% | 1021.9 hPa | 0 mm | - | 7 W/m² | - |
| 1778080421 | 0° C | 98% | 1021.9 hPa | 0 mm | - | 6 W/m² | - |
| 1778080119 | 0° C | 98% | 1021.5 hPa | 0 mm | - | 6 W/m² | - |
| 1778079815 | 0° C | 99% | 1021.6 hPa | 0 mm | - | 8 W/m² | - |
| 1778079512 | 0° C | 99% | 1021.5 hPa | 0 mm | - | 9 W/m² | - |
| 1778079208 | 0° C | 99% | 1021.6 hPa | 0 mm | - | 11 W/m² | - |
| 1778078906 | 0° C | 99% | 1021.6 hPa | 0 mm | - | 10 W/m² | - |
| 1778078602 | 0° C | 99% | 1021.5 hPa | 0 mm | - | 9 W/m² | - |
| 1778078301 | 0° C | 99% | 1021.5 hPa | 0 mm | - | 9 W/m² | - |
| 1778077998 | 0° C | 99% | 1021.3 hPa | 0 mm | - | 8 W/m² | - |
| 1778077696 | 0° C | 99% | 1021.3 hPa | 0 mm | - | 8 W/m² | - |
| 1778077394 | 0° C | 99% | 1021.3 hPa | 0 mm | - | 8 W/m² | - |
| 1778077092 | -0.56° C | 99% | 1021.2 hPa | 0 mm | - | 8 W/m² | - |
| 1778076790 | 0° C | 99% | 1021.4 hPa | 0 mm | - | 8 W/m² | - |
| 1778076487 | -0.56° C | 99% | 1021.3 hPa | 0 mm | - | 8 W/m² | - |
| 1778076184 | -0.56° C | 99% | 1021.3 hPa | 0 mm | - | 7 W/m² | - |
| 1778075881 | -0.56° C | 99% | 1021.4 hPa | 0 mm | - | 7 W/m² | - |
* Rain latest hour (hover to see other rain measurements)
** Current wind speed in m/s (hover to see current wind gust speed)